TimeEST,TemperatureF,Dew PointF,Humidity,Sea Level PressureIn,VisibilityMPH,Wind Direction,Wind SpeedMPH,Gust SpeedMPH,PrecipitationIn,Events,Conditions,WindDirDegrees,DateUTC
12:16 AM,27.1,23.2,85,29.65,5.0,West,11.5,24.2,N/A,Snow,Light Snow,280,2013-02-12 05:16:00
12:36 AM,27.0,23.4,86,29.67,7.0,West,10.4,16.1,N/A,,Overcast,270,2013-02-12 05:36:00
12:56 AM,26.8,23.0,86,29.68,10.0,West,11.5,16.1,N/A,,Overcast,280,2013-02-12 05:56:00
1:16 AM,26.6,22.8,86,29.69,10.0,West,10.4,16.1,N/A,,Overcast,270,2013-02-12 06:16:00
1:36 AM,26.6,23.4,88,29.69,10.0,West,8.1,-,N/A,,Overcast,280,2013-02-12 06:36:00
1:56 AM,26.6,23.2,87,29.70,10.0,West,8.1,17.3,N/A,,Overcast,280,2013-02-12 06:56:00
2:15 AM,26.6,22.8,86,29.71,10.0,WNW,8.1,18.4,N/A,,Overcast,290,2013-02-12 07:15:00
2:36 AM,26.4,22.8,86,29.71,10.0,West,5.8,-,N/A,,Overcast,270,2013-02-12 07:36:00
2:56 AM,26.4,22.8,86,29.72,7.0,West,8.1,-,N/A,,Overcast,270,2013-02-12 07:56:00
3:16 AM,26.1,23.0,88,29.73,5.0,West,9.2,-,N/A,,Overcast,280,2013-02-12 08:16:00
3:36 AM,25.7,23.0,89,29.74,7.0,West,6.9,-,N/A,,Overcast,270,2013-02-12 08:36:00
3:55 AM,25.7,23.0,89,29.74,10.0,West,4.6,-,N/A,,Overcast,280,2013-02-12 08:55:00
4:16 AM,25.5,22.6,89,29.75,10.0,West,4.6,-,N/A,,Overcast,260,2013-02-12 09:16:00
4:36 AM,25.5,22.5,88,29.75,10.0,West,5.8,-,N/A,,Overcast,270,2013-02-12 09:36:00
4:55 AM,25.5,22.1,87,29.76,10.0,West,8.1,-,N/A,,Overcast,280,2013-02-12 09:55:00
5:16 AM,25.3,22.1,87,29.77,10.0,West,4.6,-,N/A,,Overcast,270,2013-02-12 10:16:00
5:36 AM,25.3,22.1,87,29.77,10.0,West,6.9,-,N/A,,Overcast,280,2013-02-12 10:36:00
5:55 AM,25.5,21.9,86,29.78,10.0,West,8.1,-,N/A,,Overcast,280,2013-02-12 10:55:00
6:16 AM,25.5,21.6,85,29.78,10.0,West,8.1,-,N/A,,Overcast,270,2013-02-12 11:16:00
6:35 AM,25.3,21.2,84,29.79,10.0,WNW,5.8,-,N/A,,Overcast,290,2013-02-12 11:35:00
6:56 AM,25.3,21.2,84,29.80,10.0,WNW,10.4,-,N/A,,Overcast,290,2013-02-12 11:56:00
7:16 AM,25.3,21.6,86,29.80,10.0,West,3.5,-,N/A,,Overcast,280,2013-02-12 12:16:00
7:35 AM,25.3,21.7,86,29.81,10.0,WNW,5.8,-,N/A,,Overcast,290,2013-02-12 12:35:00
7:56 AM,25.3,21.9,87,29.82,10.0,WNW,9.2,-,N/A,,Overcast,290,2013-02-12 12:56:00
8:16 AM,25.2,22.1,88,29.83,7.0,NW,4.6,-,N/A,,Overcast,310,2013-02-12 13:16:00
8:35 AM,25.0,22.1,89,29.84,10.0,WNW,6.9,-,N/A,,Overcast,290,2013-02-12 13:35:00
8:56 AM,25.2,22.1,88,29.85,7.0,WNW,4.6,-,N/A,,Overcast,290,2013-02-12 13:56:00
9:16 AM,25.5,22.5,88,29.86,5.0,West,5.8,-,N/A,Snow,Light Snow,270,2013-02-12 14:16:00
9:36 AM,25.7,22.6,88,29.86,4.0,West,3.5,-,N/A,Snow,Light Snow,270,2013-02-12 14:36:00
9:56 AM,25.3,22.6,89,29.86,4.0,West,6.9,-,N/A,Snow,Light Snow,280,2013-02-12 14:56:00
10:16 AM,25.7,23.0,89,29.87,5.0,West,6.9,-,N/A,Snow,Light Snow,280,2013-02-12 15:16:00
10:36 AM,25.9,22.8,88,29.87,7.0,West,6.9,-,N/A,,Overcast,280,2013-02-12 15:36:00
10:56 AM,26.1,22.8,88,29.87,10.0,West,5.8,-,N/A,,Overcast,270,2013-02-12 15:56:00
11:16 AM,26.4,23.0,87,29.87,10.0,WNW,4.6,-,N/A,,Overcast,290,2013-02-12 16:16:00
11:36 AM,26.6,23.0,86,29.87,10.0,West,5.8,-,N/A,,Overcast,280,2013-02-12 16:36:00
11:56 AM,27.0,23.4,86,29.87,10.0,WNW,5.8,-,N/A,,Overcast,300,2013-02-12 16:56:00
12:15 PM,27.1,23.4,86,29.86,10.0,WNW,4.6,-,N/A,,Overcast,290,2013-02-12 17:15:00
12:36 PM,27.5,23.4,84,29.86,10.0,West,8.1,-,N/A,,Overcast,280,2013-02-12 17:36:00
12:56 PM,28.0,23.7,84,29.86,10.0,West,4.6,-,N/A,,Overcast,270,2013-02-12 17:56:00
1:15 PM,27.5,23.5,85,29.86,10.0,West,6.9,-,N/A,,Overcast,270,2013-02-12 18:15:00
1:36 PM,28.2,23.4,82,29.85,10.0,West,5.8,-,N/A,Snow,Light Snow,270,2013-02-12 18:36:00
1:56 PM,28.0,23.0,81,29.84,10.0,West,6.9,-,N/A,,Overcast,260,2013-02-12 18:56:00
2:16 PM,28.2,23.2,81,29.83,10.0,WSW,5.8,-,N/A,Snow,Light Snow,240,2013-02-12 19:16:00
2:36 PM,28.0,22.6,80,29.83,10.0,WSW,6.9,-,N/A,Snow,Light Snow,240,2013-02-12 19:36:00
2:56 PM,27.9,22.6,81,29.83,10.0,WSW,4.6,-,N/A,Snow,Light Snow,240,2013-02-12 19:56:00
3:16 PM,28.0,22.1,78,29.83,10.0,WSW,10.4,-,N/A,,Overcast,240,2013-02-12 20:16:00
3:36 PM,28.0,21.6,77,29.83,10.0,WSW,9.2,-,N/A,,Overcast,240,2013-02-12 20:36:00
3:56 PM,28.0,20.5,73,29.83,10.0,West,10.4,18.4,N/A,,Overcast,260,2013-02-12 20:56:00
4:16 PM,28.0,20.1,72,29.83,10.0,WSW,10.4,-,N/A,,Overcast,240,2013-02-12 21:16:00
4:36 PM,27.9,20.1,73,29.82,10.0,West,10.4,17.3,N/A,,Overcast,260,2013-02-12 21:36:00
4:55 PM,27.5,20.3,74,29.82,10.0,WSW,8.1,-,N/A,,Overcast,250,2013-02-12 21:55:00
5:16 PM,27.0,19.9,75,29.82,10.0,West,5.8,-,N/A,,Overcast,260,2013-02-12 22:16:00
5:35 PM,27.0,19.4,73,29.83,10.0,West,5.8,-,N/A,,Overcast,260,2013-02-12 22:35:00
5:56 PM,26.6,19.0,73,29.83,10.0,West,6.9,16.1,N/A,,Overcast,260,2013-02-12 22:56:00
6:16 PM,26.4,19.4,75,29.83,10.0,WSW,5.8,-,N/A,,Overcast,250,2013-02-12 23:16:00
6:36 PM,26.1,19.4,76,29.84,10.0,West,4.6,-,N/A,,Overcast,260,2013-02-12 23:36:00
6:56 PM,26.1,19.8,77,29.84,10.0,WSW,4.6,-,N/A,,Overcast,240,2013-02-12 23:56:00
7:15 PM,25.7,19.4,77,29.84,10.0,West,3.5,-,N/A,,Overcast,260,2013-02-13 00:15:00
7:36 PM,25.5,18.9,76,29.84,10.0,WSW,5.8,-,N/A,,Overcast,250,2013-02-13 00:36:00
7:56 PM,25.5,18.9,76,29.83,10.0,West,4.6,-,N/A,,Overcast,260,2013-02-13 00:56:00
8:15 PM,25.3,19.0,77,29.83,10.0,West,4.6,-,N/A,,Overcast,260,2013-02-13 01:15:00
8:36 PM,25.3,19.2,78,29.82,10.0,West,5.8,-,N/A,,Overcast,270,2013-02-13 01:36:00
8:56 PM,25.3,19.4,78,29.82,10.0,West,5.8,-,N/A,,Overcast,260,2013-02-13 01:56:00
9:16 PM,25.3,19.4,78,29.82,10.0,West,4.6,-,N/A,,Overcast,280,2013-02-13 02:16:00
9:36 PM,25.2,19.6,79,29.82,10.0,West,3.5,-,N/A,,Overcast,270,2013-02-13 02:36:00
9:56 PM,25.2,19.4,79,29.81,10.0,Calm,Calm,-,N/A,,Overcast,0,2013-02-13 02:56:00
10:16 PM,25.2,19.8,80,29.81,10.0,Calm,Calm,-,N/A,,Overcast,0,2013-02-13 03:16:00
10:36 PM,25.2,19.4,79,29.81,10.0,West,3.5,-,N/A,,Overcast,270,2013-02-13 03:36:00
10:56 PM,25.2,19.4,79,29.81,10.0,Calm,Calm,-,N/A,,Overcast,0,2013-02-13 03:56:00
11:16 PM,25.2,19.2,78,29.80,10.0,WNW,3.5,-,N/A,,Overcast,290,2013-02-13 04:16:00
11:36 PM,25.3,19.2,78,29.80,10.0,Calm,Calm,-,N/A,,Overcast,0,2013-02-13 04:36:00
11:55 PM,25.2,19.2,78,29.79,10.0,Calm,Calm,-,N/A,,Overcast,0,2013-02-13 04:55:00